User: anonymous   Login
Location: Unspecified
(0.0000°N, 0.0000°E)
Time: 14:46:34
(UTC+00:00)
Language:

Vanguard 2 Rocket - Orbit

View from above orbital plane
View from above orbital plane
View from above satellite
View from above satellite

Ground track
Ground track

The orbit data is extracted from the following two-line orbital elements,

1    12U 59001B   18319.15311528 -.00000107  00000-0 -83879-4 0  9995
2    12  32.9109 221.1453 1668288 265.1898  75.7063 11.44244767456064
Epoch (UTC): 15 November 2018 03:40:29
Eccentricity: 0.1668288
inclination: 32.9109°
perigee height: 553 km
apogee height: 3328 km
right ascension of ascending node: 221.1453°
argument of perigee: 265.1898°
revolutions per day: 11.44244767
mean anomaly at epoch: 75.7063°
orbit number at epoch: 45606

The dashed part of the orbit path shows where the satellite is in the earth's shadow,  

DLR